Time,TemperatureF,DewpointF,PressureIn,WindDirection,WindDirectionDegrees,WindSpeedMPH,WindSpeedGustMPH,Humidity,HourlyPrecipIn,Conditions,Clouds,dailyrainin,SoftwareType,DateUTC
2013-03-13 00:02:00,29.0,7.0,-100.00,North,0,2.0,13.0,40,-99.99,,,-99.99,,2013-03-13 08:02:00,
2013-03-13 00:12:00,29.0,7.0,-100.00,North,0,2.0,13.0,40,-99.99,,,-99.99,,2013-03-13 08:12:00,
2013-03-13 00:22:00,28.0,7.0,-100.00,NNE,30,3.0,9.0,41,-99.99,,,-99.99,,2013-03-13 08:22:00,
2013-03-13 00:33:00,28.0,7.0,-100.00,NNE,30,3.0,9.0,41,-99.99,,,-99.99,,2013-03-13 08:33:00,
2013-03-13 00:43:00,28.0,7.0,-100.00,NNE,30,3.0,9.0,41,-99.99,,,-99.99,,2013-03-13 08:43:00,
2013-03-13 00:53:00,27.0,6.0,-100.00,North,10,4.0,11.0,41,-99.99,,,-99.99,,2013-03-13 08:53:00,
2013-03-13 01:01:00,27.0,6.0,-100.00,North,10,4.0,11.0,41,-99.99,,,-99.99,,2013-03-13 09:01:00,
2013-03-13 01:12:00,27.0,6.0,-100.00,North,10,4.0,11.0,41,-99.99,,,-99.99,,2013-03-13 09:12:00,
2013-03-13 01:22:00,27.0,4.0,-100.00,NNE,25,5.0,14.0,38,-99.99,,,-99.99,,2013-03-13 09:22:00,
2013-03-13 01:32:00,27.0,4.0,-100.00,NNE,25,5.0,14.0,38,-99.99,,,-99.99,,2013-03-13 09:32:00,
2013-03-13 01:42:00,27.0,4.0,-100.00,NNE,25,5.0,14.0,38,-99.99,,,-99.99,,2013-03-13 09:42:00,
2013-03-13 01:52:00,26.0,4.0,-100.00,NNE,30,3.0,14.0,38,-99.99,,,-99.99,,2013-03-13 09:52:00,
2013-03-13 02:02:00,26.0,4.0,-100.00,NNE,30,3.0,14.0,38,-99.99,,,-99.99,,2013-03-13 10:02:00,
2013-03-13 02:11:00,26.0,4.0,-100.00,NNE,30,3.0,14.0,38,-99.99,,,-99.99,,2013-03-13 10:11:00,
2013-03-13 02:22:00,25.0,3.0,-100.00,NE,45,3.0,11.0,39,-99.99,,,-99.99,,2013-03-13 10:22:00,
2013-03-13 02:32:00,25.0,3.0,-100.00,NE,45,3.0,11.0,39,-99.99,,,-99.99,,2013-03-13 10:32:00,
2013-03-13 02:42:00,25.0,3.0,-100.00,NE,45,3.0,11.0,39,-99.99,,,-99.99,,2013-03-13 10:42:00,
2013-03-13 02:52:00,25.0,3.0,-100.00,North,10,4.0,9.0,39,-99.99,,,-99.99,,2013-03-13 10:52:00,
2013-03-13 03:02:00,25.0,3.0,-100.00,North,10,4.0,9.0,39,-99.99,,,-99.99,,2013-03-13 11:02:00,
2013-03-13 03:12:00,25.0,3.0,-100.00,North,10,4.0,9.0,39,-99.99,,,-99.99,,2013-03-13 11:12:00,
2013-03-13 03:22:00,21.0,1.0,-100.00,East,80,2.0,6.0,42,-99.99,,,-99.99,,2013-03-13 11:22:00,
2013-03-13 03:32:00,21.0,1.0,-100.00,East,80,2.0,6.0,42,-99.99,,,-99.99,,2013-03-13 11:32:00,
2013-03-13 03:42:00,21.0,1.0,-100.00,East,80,2.0,6.0,42,-99.99,,,-99.99,,2013-03-13 11:42:00,
2013-03-13 03:52:00,20.0,1.0,-100.00,ENE,75,1.0,5.0,43,-99.99,,,-99.99,,2013-03-13 11:52:00,
2013-03-13 04:02:00,20.0,1.0,-100.00,ENE,75,1.0,5.0,43,-99.99,,,-99.99,,2013-03-13 12:02:00,
2013-03-13 04:22:00,12.0,-3.0,-100.00,East,85,4.0,7.0,50,-99.99,,,-99.99,,2013-03-13 12:22:00,
2013-03-13 04:52:00,17.0,2.0,-100.00,NE,35,2.0,7.0,51,-99.99,,,-99.99,,2013-03-13 12:52:00,
2013-03-13 05:02:00,17.0,2.0,-100.00,NE,35,2.0,7.0,51,-99.99,,,-99.99,,2013-03-13 13:02:00,
2013-03-13 05:11:00,17.0,2.0,-100.00,NE,35,2.0,7.0,51,-99.99,,,-99.99,,2013-03-13 13:11:00,
2013-03-13 05:22:00,8.0,-5.0,-100.00,ESE,105,5.0,7.0,54,-99.99,,,-99.99,,2013-03-13 13:22:00,
2013-03-13 05:52:00,5.0,-5.0,-100.00,ESE,105,7.0,7.0,63,-99.99,,,-99.99,,2013-03-13 13:52:00,
2013-03-13 06:21:00,3.0,-4.0,-100.00,East,100,6.0,6.0,70,-99.99,,,-99.99,,2013-03-13 14:21:00,
2013-03-13 06:52:00,2.0,-4.0,-100.00,East,100,6.0,7.0,75,-99.99,,,-99.99,,2013-03-13 14:52:00,
2013-03-13 07:52:00,0.0,-4.0,-100.00,East,95,7.0,8.0,81,-99.99,,,-99.99,,2013-03-13 15:52:00,
2013-03-13 08:22:00,0.0,-4.0,-100.00,East,95,8.0,9.0,84,-99.99,,,-99.99,,2013-03-13 16:22:00,
2013-03-13 08:52:00,-1.0,-5.0,-100.00,East,95,6.0,9.0,84,-99.99,,,-99.99,,2013-03-13 16:52:00,
2013-03-13 09:22:00,-2.0,-5.0,-100.00,East,100,7.0,10.0,85,-99.99,,,-99.99,,2013-03-13 17:22:00,
2013-03-13 09:53:00,0.0,-4.0,-100.00,East,95,7.0,9.0,85,-99.99,,,-99.99,,2013-03-13 17:53:00,
2013-03-13 10:22:00,3.0,-2.0,-100.00,East,100,6.0,7.0,81,-99.99,,,-99.99,,2013-03-13 18:22:00,
2013-03-13 10:52:00,6.0,0.0,-100.00,East,100,5.0,6.0,75,-99.99,,,-99.99,,2013-03-13 18:52:00,
2013-03-13 11:22:00,11.0,2.0,-100.00,East,90,5.0,6.0,69,-99.99,,,-99.99,,2013-03-13 19:22:00,
2013-03-13 11:52:00,25.0,5.0,-100.00,NE,50,4.0,12.0,42,-99.99,,,-99.99,,2013-03-13 19:52:00,
2013-03-13 12:02:00,25.0,5.0,-100.00,NE,50,4.0,12.0,42,-99.99,,,-99.99,,2013-03-13 20:02:00,
2013-03-13 12:12:00,25.0,5.0,-100.00,NE,50,4.0,12.0,42,-99.99,,,-99.99,,2013-03-13 20:12:00,
2013-03-13 12:22:00,26.0,3.0,-100.00,ENE,60,6.0,12.0,36,-99.99,,,-99.99,,2013-03-13 20:22:00,
2013-03-13 12:32:00,26.0,3.0,-100.00,ENE,60,6.0,12.0,36,-99.99,,,-99.99,,2013-03-13 20:32:00,
2013-03-13 12:42:00,26.0,3.0,-100.00,ENE,60,6.0,12.0,36,-99.99,,,-99.99,,2013-03-13 20:42:00,
2013-03-13 12:52:00,28.0,3.0,-100.00,North,10,2.0,12.0,34,-99.99,,,-99.99,,2013-03-13 20:52:00,
2013-03-13 13:01:00,28.0,3.0,-100.00,North,10,2.0,12.0,34,-99.99,,,-99.99,,2013-03-13 21:01:00,
2013-03-13 13:11:00,28.0,3.0,-100.00,North,10,2.0,12.0,34,-99.99,,,-99.99,,2013-03-13 21:11:00,
2013-03-13 13:21:00,28.0,3.0,-100.00,North,0,4.0,14.0,34,-99.99,,,-99.99,,2013-03-13 21:21:00,
2013-03-13 13:32:00,28.0,3.0,-100.00,North,0,4.0,14.0,34,-99.99,,,-99.99,,2013-03-13 21:32:00,
2013-03-13 13:42:00,28.0,3.0,-100.00,North,0,4.0,14.0,34,-99.99,,,-99.99,,2013-03-13 21:42:00,
2013-03-13 13:52:00,28.0,2.0,-100.00,NE,45,8.0,14.0,33,-99.99,,,-99.99,,2013-03-13 21:52:00,
2013-03-13 14:01:00,28.0,2.0,-100.00,NE,45,8.0,14.0,33,-99.99,,,-99.99,,2013-03-13 22:01:00,
2013-03-13 14:12:00,28.0,2.0,-100.00,NE,45,8.0,14.0,33,-99.99,,,-99.99,,2013-03-13 22:12:00,
2013-03-13 14:22:00,29.0,3.0,-100.00,NNE,20,5.0,14.0,33,-99.99,,,-99.99,,2013-03-13 22:22:00,
2013-03-13 14:31:00,29.0,3.0,-100.00,NNE,20,5.0,14.0,33,-99.99,,,-99.99,,2013-03-13 22:31:00,
2013-03-13 14:42:00,29.0,3.0,-100.00,NNE,20,5.0,14.0,33,-99.99,,,-99.99,,2013-03-13 22:42:00,
2013-03-13 14:52:00,29.0,3.0,-100.00,NNE,20,5.0,14.0,33,-99.99,,,-99.99,,2013-03-13 22:52:00,
2013-03-13 15:22:00,29.0,4.0,-100.00,North,0,4.0,17.0,33,-99.99,,,-99.99,,2013-03-13 23:22:00,
2013-03-13 15:32:00,29.0,4.0,-100.00,North,0,4.0,17.0,33,-99.99,,,-99.99,,2013-03-13 23:32:00,
2013-03-13 15:42:00,29.0,4.0,-100.00,North,0,4.0,17.0,33,-99.99,,,-99.99,,2013-03-13 23:42:00,
2013-03-13 15:52:00,30.0,4.0,-100.00,NNW,345,6.0,14.0,34,-99.99,,,-99.99,,2013-03-13 23:52:00,
2013-03-13 16:02:00,30.0,4.0,-100.00,NNW,345,6.0,14.0,34,-99.99,,,-99.99,,2013-03-14 00:02:00,
2013-03-13 16:12:00,30.0,4.0,-100.00,NNW,345,6.0,14.0,34,-99.99,,,-99.99,,2013-03-14 00:12:00,
2013-03-13 16:22:00,30.0,4.0,-100.00,NW,320,6.0,12.0,34,-99.99,,,-99.99,,2013-03-14 00:22:00,
2013-03-13 16:31:00,30.0,4.0,-100.00,NW,320,6.0,12.0,34,-99.99,,,-99.99,,2013-03-14 00:31:00,
2013-03-13 16:42:00,30.0,4.0,-100.00,NW,320,6.0,12.0,34,-99.99,,,-99.99,,2013-03-14 00:42:00,
2013-03-13 16:52:00,30.0,6.0,-100.00,NNE,20,5.0,12.0,35,-99.99,,,-99.99,,2013-03-14 00:52:00,
2013-03-13 17:02:00,30.0,6.0,-100.00,NNE,20,5.0,12.0,35,-99.99,,,-99.99,,2013-03-14 01:02:00,
2013-03-13 17:12:00,30.0,6.0,-100.00,NNE,20,5.0,12.0,35,-99.99,,,-99.99,,2013-03-14 01:12:00,
2013-03-13 17:22:00,31.0,7.0,-100.00,North,0,4.0,15.0,36,-99.99,,,-99.99,,2013-03-14 01:22:00,
2013-03-13 17:32:00,31.0,7.0,-100.00,North,0,4.0,15.0,36,-99.99,,,-99.99,,2013-03-14 01:32:00,
2013-03-13 17:42:00,31.0,7.0,-100.00,North,0,4.0,15.0,36,-99.99,,,-99.99,,2013-03-14 01:42:00,
2013-03-13 17:52:00,31.0,8.0,-100.00,North,0,6.0,16.0,38,-99.99,,,-99.99,,2013-03-14 01:52:00,
2013-03-13 18:01:00,31.0,8.0,-100.00,North,0,6.0,16.0,38,-99.99,,,-99.99,,2013-03-14 02:01:00,
2013-03-13 18:12:00,31.0,8.0,-100.00,North,0,6.0,16.0,38,-99.99,,,-99.99,,2013-03-14 02:12:00,
2013-03-13 18:21:00,30.0,8.0,-100.00,North,10,6.0,14.0,40,-99.99,,,-99.99,,2013-03-14 02:21:00,
2013-03-13 18:33:00,30.0,8.0,-100.00,North,10,6.0,14.0,40,-99.99,,,-99.99,,2013-03-14 02:33:00,
2013-03-13 18:42:00,30.0,8.0,-100.00,North,10,6.0,14.0,40,-99.99,,,-99.99,,2013-03-14 02:42:00,
2013-03-13 18:52:00,30.0,8.0,-100.00,North,10,6.0,14.0,40,-99.99,,,-99.99,,2013-03-14 02:52:00,
2013-03-13 19:01:00,29.0,8.0,-100.00,North,0,4.0,14.0,40,-99.99,,,-99.99,,2013-03-14 03:01:00,
2013-03-13 19:12:00,29.0,8.0,-100.00,North,0,4.0,14.0,40,-99.99,,,-99.99,,2013-03-14 03:12:00,
2013-03-13 19:22:00,30.0,8.0,-100.00,North,0,7.0,15.0,39,-99.99,,,-99.99,,2013-03-14 03:22:00,
2013-03-13 19:32:00,30.0,8.0,-100.00,North,0,7.0,15.0,39,-99.99,,,-99.99,,2013-03-14 03:32:00,
2013-03-13 19:42:00,30.0,8.0,-100.00,North,0,7.0,15.0,39,-99.99,,,-99.99,,2013-03-14 03:42:00,
2013-03-13 19:52:00,29.0,6.0,-100.00,North,0,3.0,15.0,38,-99.99,,,-99.99,,2013-03-14 03:52:00,
2013-03-13 20:12:00,29.0,6.0,-100.00,North,0,3.0,15.0,38,-99.99,,,-99.99,,2013-03-14 04:12:00,
2013-03-13 20:22:00,27.0,5.0,-100.00,North,5,4.0,11.0,38,-99.99,,,-99.99,,2013-03-14 04:22:00,
2013-03-13 20:32:00,27.0,5.0,-100.00,North,5,4.0,11.0,38,-99.99,,,-99.99,,2013-03-14 04:32:00,
2013-03-13 20:42:00,27.0,5.0,-100.00,North,5,4.0,11.0,38,-99.99,,,-99.99,,2013-03-14 04:42:00,
2013-03-13 20:52:00,27.0,4.0,-100.00,North,0,3.0,9.0,38,-99.99,,,-99.99,,2013-03-14 04:52:00,
2013-03-13 21:01:00,27.0,4.0,-100.00,North,0,3.0,9.0,38,-99.99,,,-99.99,,2013-03-14 05:01:00,
2013-03-13 21:12:00,27.0,4.0,-100.00,North,0,3.0,9.0,38,-99.99,,,-99.99,,2013-03-14 05:12:00,
2013-03-13 21:22:00,26.0,4.0,-100.00,North,5,4.0,9.0,38,-99.99,,,-99.99,,2013-03-14 05:22:00,
2013-03-13 21:33:00,26.0,4.0,-100.00,North,5,4.0,9.0,38,-99.99,,,-99.99,,2013-03-14 05:33:00,
2013-03-13 21:42:00,26.0,4.0,-100.00,North,5,4.0,9.0,38,-99.99,,,-99.99,,2013-03-14 05:42:00,
2013-03-13 21:52:00,26.0,3.0,-100.00,North,0,4.0,7.0,38,-99.99,,,-99.99,,2013-03-14 05:52:00,
2013-03-13 22:01:00,26.0,3.0,-100.00,North,0,4.0,7.0,38,-99.99,,,-99.99,,2013-03-14 06:01:00,
2013-03-13 22:12:00,26.0,3.0,-100.00,North,0,4.0,7.0,38,-99.99,,,-99.99,,2013-03-14 06:12:00,
2013-03-13 22:21:00,25.0,4.0,-100.00,North,-999,-999.0,-999.0,40,-99.99,,,-99.99,,2013-03-14 06:21:00,
2013-03-13 22:33:00,25.0,4.0,-100.00,North,-999,-999.0,-999.0,40,-99.99,,,-99.99,,2013-03-14 06:33:00,
2013-03-13 22:42:00,25.0,4.0,-100.00,North,-999,-999.0,-999.0,40,-99.99,,,-99.99,,2013-03-14 06:42:00,
2013-03-13 22:52:00,26.0,6.0,-100.00,North,0,4.0,17.0,42,-99.99,,,-99.99,,2013-03-14 06:52:00,
2013-03-13 23:01:00,26.0,6.0,-100.00,North,0,4.0,17.0,42,-99.99,,,-99.99,,2013-03-14 07:01:00,
2013-03-13 23:11:00,26.0,6.0,-100.00,North,0,4.0,17.0,42,-99.99,,,-99.99,,2013-03-14 07:11:00,
2013-03-13 23:22:00,25.0,6.0,-100.00,NE,40,6.0,14.0,44,-99.99,,,-99.99,,2013-03-14 07:22:00,
2013-03-13 23:32:00,25.0,6.0,-100.00,NE,40,6.0,14.0,44,-99.99,,,-99.99,,2013-03-14 07:32:00,
2013-03-13 23:43:00,25.0,6.0,-100.00,NE,40,6.0,14.0,44,-99.99,,,-99.99,,2013-03-14 07:43:00,
2013-03-13 23:52:00,24.0,5.0,-100.00,North,5,9.0,18.0,43,-99.99,,,-99.99,,2013-03-14 07:52:00,